{"data":{"norad_id":47771,"epoch":"2026-09-20T01:00:49.885056Z","epoch_age_seconds":65316,"freshness":"FRESH","line1":"1 47771U 21017BB  26263.04224404  .00034028  00000+0  96710-3 0  9998","line2":"2 47771  53.1600  18.7798 0001876   7.0596 353.0434 15.35878540307662","mean_motion":15.3587854,"eccentricity":0.0001876,"inclination_deg":53.16,"raan_deg":18.7798,"arg_perigee_deg":7.0596,"mean_anomaly_deg":353.0434,"bstar":0.0009671,"rev_number":30766,"period_min":93.757413916337,"perigee_km":457.02971563374,"apogee_km":459.59475138615,"semimajor_km":6836.4492335099,"source":"CELESTRAK","updated_at":"2026-09-20T09:00:38.602998Z"}}